This is the latest recevied weather packets stored in our database for station/object YC0ACE-13. If no packets are shown the sender has not sent any weather packets the latest 10 day(s).
| Time | Temp. | Humidity | Pressure | Rain* | Wind** | Luminosity | Snow |
|---|---|---|---|---|---|---|---|
| 1777854325 | 27.22° C | 83% | 1015.9 hPa | 0 mm | - | 147 W/m² | - |
| 1777854025 | 27.22° C | 84% | 1015.9 hPa | 0 mm | - | 136 W/m² | - |
| 1777853724 | 27.22° C | 83% | 1015.9 hPa | 0 mm | - | 125 W/m² | - |
| 1777853424 | 26.67° C | 85% | 1015.6 hPa | 0 mm | - | 109 W/m² | - |
| 1777853125 | 26.67° C | 85% | 1015.9 hPa | 0 mm | - | 93 W/m² | - |
| 1777852825 | 26.67° C | 85% | 1015.9 hPa | 0 mm | - | 74 W/m² | - |
| 1777852526 | 26.67° C | 85% | 1015.6 hPa | 0 mm | - | 61 W/m² | - |
| 1777852224 | 26.67° C | 85% | 1015.6 hPa | 0 mm | - | 51 W/m² | - |
| 1777851924 | 26.67° C | 85% | 1015.9 hPa | 0 mm | - | 41 W/m² | - |
| 1777851624 | 26.67° C | 85% | 1016.3 hPa | 0 mm | - | 34 W/m² | - |
| 1777851325 | 26.11° C | 85% | 1015.9 hPa | 0 mm | - | 28 W/m² | - |
| 1777851025 | 26.11° C | 85% | 1015.9 hPa | 0 mm | - | 23 W/m² | - |
| 1777850724 | 26.11° C | 86% | 1015.9 hPa | 0 mm | - | 20 W/m² | - |
| 1777850425 | 26.11° C | 86% | 1015.9 hPa | 0 mm | - | 16 W/m² | - |
| 1777850124 | 26.11° C | 87% | 1015.6 hPa | 0 mm | - | 14 W/m² | - |
| 1777849825 | 26.11° C | 88% | 1015.6 hPa | 0 mm | - | 11 W/m² | - |
| 1777849524 | 26.11° C | 88% | 1015.2 hPa | 0 mm | - | 8 W/m² | - |
| 1777849226 | 26.11° C | 88% | 1015.2 hPa | 0 mm | - | 5 W/m² | - |
| 1777848924 | 26.11° C | 88% | 1014.9 hPa | 0 mm | - | 2 W/m² | - |
| 1777848624 | 26.11° C | 89% | 1014.9 hPa | 0 mm | - | 1 W/m² | - |
| 1777848324 | 26.11° C | 89% | 1014.9 hPa | 0 mm | - | 0 W/m² | - |
| 1777848034 | 26.11° C | 89% | 1014.9 hPa | 0 mm | - | 0 W/m² | - |
| 1777847724 | 25.56° C | 89% | 1014.9 hPa | 0 mm | - | 0 W/m² | - |
| 1777847425 | 25.56° C | 89% | 1014.9 hPa | 0 mm | - | 0 W/m² | - |
| 1777847125 | 26.11° C | 89% | 1014.9 hPa | 0 mm | - | 0 W/m² | - |
* Rain latest hour (hover to see other rain measurements)
** Current wind speed in m/s (hover to see current wind gust speed)